Location: Paderno d�Adda
(45.6667°N, 9.4333°E)
Time: 01:23:10
(UTC+00:00)

Sich 1 Rocket - Pass Details

Date: 19 September 2020
Orbit: 616 x 652 km, 82.5° (Epoch: 26 October)

Event Time Altitude Azimuth Distance (km) Brightness Sun altitude
Rises 18:04:13 0° 171° (S) 2,914 6.8 -7.6°
Reaches altitude 10° 18:06:30 10° 165° (SSE) 2,017 6.0 -8.0°
Maximum altitude 18:10:46 46° 93° (E) 866 3.9 -8.8°
Drops below altitude 10° 18:15:07 10° 20° (NNE) 2,054 6.1 -9.5°
Sets 18:17:27 0° 15° (NNE) 2,974 7.0 -9.9°
